Location: Zagreb
(45.8000°N, 16.0000°E)
Time: 11:50:07
(UTC+01:00)

Vanguard 1 Rocket - Pass Details

Date: 02 October 2020
Orbit: 656 x 4221 km, 34.3° (Epoch: 28 October)

Event Time Altitude Azimuth Distance (km) Brightness Sun altitude
Rises 00:20:53 0° 280° (W) 7,141 12.1 -47.5°
Reaches altitude 10° 00:26:03 10° 271° (W) 6,540 11.8 -47.6°
Enters shadow 00:37:42 28° 241° (WSW) 5,768 11.1 -47.8°
Maximum altitude 00:44:14 31° 219° (SW) 5,731 - -47.9°
Drops below altitude 10° 01:04:16 10° 168° (SSE) 7,076 - -47.7°
Sets 01:10:22 0° 159° (SSE) 7,764 - -47.5°
